星链-4668 (STARLINK-4668 )

导读

STARLINK-4668是美国太空探索技术公司SpaceX星链星座的成员,于2022年8月28日发射入轨,属于星链互联网卫星组网的一部分。它依托低轨部署,为全球提供高速低延迟互联网服务,填补偏远地区网络覆盖空白,服务涵盖民用通信等领域,是星链大规模星座组网进程中的一颗组网卫星。

基本信息
目录编号:
53596
目录名称:
STARLINK-4668
国际标识:
2022-104J
轨道中心:
EARTH
卫星名称:
星链-4668
卫星全名:
星链-4668 (STARLINK-4668 )
卫星状态:
已陨落 最后检测时间 2025-06-13
发射日期:
2022-08-28 UTC
国别 :
美国 (US)
星等 :
--
轨道信息
数据来源 国际轨道数据
星历时间: 2025-06-14T01:42:43+0800
轨道信息已过期368天
半长轴: 6539.884km
偏心率: 0.0005723
轨道倾角: 53.184°
近地点辐角 304.029°
升交点赤经 280.965°
平近点角 211.553°
近地点: 158.006km
远地点: 165.492km
周期: 87.723分钟
每日圈数: 16.41526
详细信息
固有亮度:
5
最大亮度:
2.5
卫星平台:
Starlink v1.5
覆盖范围:
全球
运营商:
太空探索技术公司
运营商所在国:
美国
制造商(研发单位):
太空探索技术公司
制造商所在国:
美国
使用方式:
暂无
卫星简介
星链(Starlink)计划是由太空探索技术公司(SpaceX)提出的一个巨型低轨卫星互联网星座项目,计划在2019年至2024年间在太空搭建由约1.2万颗卫星组成的“星链”网络,其中1584颗将部署在地球上空550千米处的近地轨道,并从2020年开始工作。该卫星仍在工作。